Florala, AL

3:00 PM CDT on July 20, 2017 (GMT -0500)
Florala

Weather History for K0J4 - March, 2013

Change the Weather History Date:

Tuesday, March 19, 2013

  Actual Average (KCEW) Record (KCEW)
Temperature  
Mean Temperature 65 °F -  
Max Temperature 75 °F 73 °F 88 °F (2011)
Min Temperature 55 °F 46 °F 33 °F (1949)
Growing Degree Days 15 (Base 50)    
Moisture  
Dew Point 51 °F    
Average Humidity 73    
Maximum Humidity 96    
Minimum Humidity 33    
Precipitation  
Precipitation 0.25 in - - ()
Sea Level Pressure  
Sea Level Pressure 30.00 in    
Wind  
Wind Speed 6 mph (NNE)    
Max Wind Speed 9 mph    
Max Gust Speed 21 mph    
Visibility 9 miles    
Events Rain , Thunderstorm    
Averages and records for this station are not official NWS values.
T = Trace of Precipitation, MM = Missing Value Source: NWS Daily Summary

Daily Weather History Graph

Daily Weather History Graph

Search for Another Location

Airport or City:

Trip Planner

Search our weather history database for the weather conditions in past years. The results will help you decide how hot, cold, wet, or windy it might be!

Date:

Astronomy

Mar. 19, 2013 Rise Set
Actual Time 6:49 AM CDT 6:56 PM CDT
Civil Twilight 6:25 AM CDT 7:20 PM CDT
Nautical Twilight 5:57 AM CDT 7:48 PM CDT
Astronomical Twilight 5:29 AM CDT 8:16 PM CDT
Moon 12:00 PM CDT (3/19) 1:21 AM CDT (3/19)
Length of Visible Light 12h 54m
Length of Day
12h 06m
Waxing Crescent, 50% of the Moon is Illuminated
Mar 19
Waxing Crescent
Mar 19
First Quarter
Mar 27
Full
Apr 2
Last Quarter
Apr 10
New

Hourly Weather History & Observations

Time (CDT) Temp. Dew Point Humidity Pressure Visibility Wind Dir Wind Speed Gust Speed Precip Events Conditions
12:24 AM 60.8 °F 57.2 °F 88% 29.93 in 10.0 mi North 8.1 mph - N/A   Mostly Cloudy
12:45 AM 60.8 °F 57.2 °F 88% 29.94 in 10.0 mi Calm Calm - N/A Thunderstorm Overcast
12:58 AM 60.1 °F 57.9 °F 93% 30.02 in 10.0 mi Variable 6.9 mph - 0.00 in Rain , Thunderstorm Light Thunderstorms and Rain
1:05 AM 59.0 °F 57.2 °F 94% 30.01 in 1.8 mi North 9.2 mph 20.7 mph 0.12 in Rain , Thunderstorm Heavy Thunderstorms and Rain
1:16 AM 57.2 °F 55.4 °F 94% 29.95 in 3.0 mi North 9.2 mph - 0.25 in Rain , Thunderstorm Thunderstorms and Rain
1:52 AM 55.4 °F 53.6 °F 94% 29.91 in 10.0 mi SE 5.8 mph - 0.25 in   Clear
1:58 AM 57.0 °F 54.0 °F 89% 29.90 in 10.0 mi Variable 3.5 mph - 0.25 in   Clear
2:58 AM 55.0 °F 54.0 °F 96% 29.92 in 10.0 mi Calm Calm - N/A   Clear
3:58 AM 55.9 °F 53.1 °F 90% 29.94 in 10.0 mi Calm Calm - N/A   Mostly Cloudy
4:58 AM 57.0 °F 55.0 °F 93% 29.96 in 10.0 mi Variable 3.5 mph - N/A   Overcast
5:58 AM 57.0 °F 55.0 °F 93% 29.99 in 10.0 mi North 4.6 mph - N/A   Mostly Cloudy
6:58 AM 57.0 °F 55.0 °F 93% 30.02 in 10.0 mi North 4.6 mph - N/A   Overcast
7:14 AM 57.2 °F 55.4 °F 94% 30.03 in 9.0 mi North 4.6 mph - N/A   Overcast
7:45 AM 57.2 °F 55.4 °F 94% 30.04 in 9.0 mi NNE 5.8 mph - N/A   Overcast
7:52 AM 57.2 °F 53.6 °F 88% 30.04 in 9.0 mi North 9.2 mph - N/A   Overcast
7:58 AM 57.9 °F 53.1 °F 84% 30.04 in 10.0 mi North 8.1 mph - N/A   Overcast
8:58 AM 57.9 °F 53.1 °F 84% 30.06 in 10.0 mi North 9.2 mph - N/A   Overcast
9:58 AM 59.0 °F 53.1 °F 81% 30.06 in 10.0 mi NE 8.1 mph - N/A   Overcast
10:52 AM 62.6 °F 51.8 °F 68% 30.08 in 10.0 mi NE 8.1 mph - N/A   Scattered Clouds
10:58 AM 62.1 °F 52.0 °F 70% 30.07 in 10.0 mi NE 8.1 mph - N/A   Partly Cloudy
12:58 PM 70.0 °F 50.0 °F 49% 30.04 in 10.0 mi Variable 3.5 mph - N/A   Clear
1:58 PM 73.0 °F 48.0 °F 41% 30.01 in 10.0 mi Variable 4.6 mph - N/A   Clear
2:58 PM 75.0 °F 45.0 °F 34% 29.99 in 10.0 mi NNE 4.6 mph - N/A   Clear
3:58 PM 75.9 °F 45.0 °F 33% 29.99 in 10.0 mi Variable 4.6 mph - N/A   Clear
4:58 PM 75.0 °F 44.1 °F 33% 29.98 in 10.0 mi NE 4.6 mph - N/A   Clear
5:58 PM 73.0 °F 44.1 °F 35% 29.98 in 10.0 mi NNE 4.6 mph - N/A   Clear
6:58 PM 64.0 °F 50.0 °F 60% 29.98 in 10.0 mi Calm Calm - N/A   Clear
7:58 PM 60.1 °F 48.0 °F 64% 30.01 in 10.0 mi North 4.6 mph - N/A   Clear
8:58 PM 57.9 °F 46.0 °F 65% 30.02 in 10.0 mi North 4.6 mph - N/A   Clear
9:58 PM 57.9 °F 42.1 °F 56% 30.03 in 10.0 mi North 4.6 mph - N/A   Clear
10:58 PM 57.0 °F 39.9 °F 53% 30.04 in 10.0 mi North 5.8 mph - N/A   Clear
11:58 PM 55.0 °F 39.9 °F 57% 30.04 in 10.0 mi NNE 6.9 mph - N/A   Clear